Погода Александровск-Сахалинский

Погода Александровск-Сахалинский : погода сейчас, прогноз погоды и архив. Всё, что Вы хотите узнать о погоде Александровск-Сахалинский!

Хотите узнать прогноз погоды Александровск-Сахалинский? Тогда Вам сюда: Погода Александровск-Сахалинский

Поиск расширенной информации на нашем сайте:

Другие новости

Новости СМИ2

Главная страница сайта

Новости сайта

03.07.2017

Напоминаем, что на нашем специализированном сайте Метеоцентр.Азия вы можете получить высокодетализированные автоматические прогнозы погоды по пунктам России, СНГ и мира в авиационном формате (включающие направление и скорость ветра, видимость, явления погоды, количество и форму облачности, нижнюю и верхнюю границу облачности).


Погода Александровск-Сахалинский - сегодня

Время (UTC), дата Ветер
(°,м/с) 
Видим.   Явления Облачность Т
(°С)
Тd
(°С)
f(%) Тe
(°С)
Pmin
(гПа)
dP
(гПа)
Po
(мм)
O2
(г/м3)
Тmin Tmax R s Состояние
почвы
06 17.08.17 290 (З) 2-3{04}  20000 м    6/5 300 м кучево-дожд., средняя 
[Cb cap|Ac trans]
+17.8 +13.4 75 +25  1015.1  -0.7  759  284           
09 17.08.17 300 (СЗ) 2-3{05}  20000 м    10/10 600 м кучево-дожд. 
[Cb cap]
+15.9 +12.4 80 +21  1015  -0.2  758  286    +18.3       
12 17.08.17 110 (В) 2-2{05}  20000 м  слаб. ливневой дождь  10/10 600 м кучево-дожд. 
[Cb cap]
+14.8 +13.5 92 +21  1015.1  0.1  758  287           
15 17.08.17 120 (ЮВ) 2-3{04}  21000 м  {ливн. осадки}  6/6 600 м кучево-дожд. 
[Cb cap]
+13.9 +13.2 96 +19  1014.6  -0.4  758  288           
18 17.08.17 150 (ЮВ) 3-4{04}  15000 м  слаб. ливневой дождь  10/10 600 м кучево-дожд. 
[Cb cap]
+13.5 +12.9 96 +19  1014.2  -0.4  758  288           
21 17.08.17 140 (ЮВ) 2-3{05}  4000 м  слаб. ливневой дождь  10/10 300 м кучево-дожд. 
[Cb cap]
+13.4 +13 97 +19  1014.4  0.2  758  289  +13.3      влажная 
00 18.08.17 260 (З) 3-4{04}  4000 м  дымка{ливн. осадки}  9/9 300 м кучево-дожд. 
[Cb cap]
+15.9 +14.6 92 +24  1014.7  0.4  758  286           
03 18.08.17 310 (СЗ) 2-4{06}  4000 м  слаб. ливневой дождь  9/9 300 м кучево-дожд. 
[Cb cap]
+16.8 +14.7 87 +26  1014.3  -0.4  758  285           
06 18.08.17 290 (З) 2-3{05}  20000 м  {ливн. осадки}  8/8 300 м кучево-дожд., верхняя 
[Cb cap|Ci sp]
+18.2 +14.2 77 +26  1014  -0.3  758  283           
09 18.08.17 360 (С) 1-2{03}  20000 м    1/1 600 м кучево-дожд. 
[Cb cap]
+16.7 +12.9 78 +23  1013.9  0.1  758  285    +18.3     
12 18.08.17 130 (ЮВ) 3-4{04}  50000 м    ясно 
+12.2 +11.6 96 +15  1014.6  0.7  758  290           
15 18.08.17 130 (ЮВ) 3-4{05}  50000 м    ясно 
+11.2 +10.4 95 +12  1014.9  0.3  758  292           
18 18.08.17 130 (ЮВ) 2-4{05}  50000 м    ясно 
+11.3 +10.5 95 +14  1014.5  -0.4  758  291           
21 18.08.17 130 (ЮВ) 2-3{05}  20000 м    9/9 600 м 
[Sc]
+12.8 +11.4 91 +16  1014.9  0.4  758  290  +10.8        влажная 
00 19.08.17 220 (ЮЗ) 2-4{04}  20000 м    9/9 600 м 
[Cu Sc]
+17.2 +13.3 78 +24  1014.9  0.1  758  285           
03 19.08.17 260 (З) 4-7{07}  20000 м    8/4 600 м средняя 
[Cu Sc|Ac trans]
+19.4 +14 71 +27  1014.4  -0.5  758  282           
06 19.08.17 210 (ЮЗ) 5-9{10}  20000 м    3/3 600 м кучево-дожд., верхняя 
[Cb cap|Ci sp]
+19.8 +14.2 70 +27  1013.3  -1.1  757  282           
09 19.08.17 170 (Ю) 2-6{09}  20000 м    3/1 600 м верхняя 
[Cu med, cong|Ci sp]
+18.3 +14.6 79 +27  1013.4  -0.1  757  283    +20.3       
12 19.08.17 090 (В) 3-3{06}  50000 м    1/0 средняя 
[Ac lent]
+13.5 +12.7 95 +19  1014.3  0.9  758  289           
15 19.08.17 140 (ЮВ) 3-4{05}  30000 м    3/3 300 м 
[St]
+14.4 +13.2 92 +20  1013.9  -0.4  758  287           
18 19.08.17 140 (ЮВ) 2-4{04}  40000 м    4/0 средняя, верхняя 
[Ac trans|Ci sp]
+14.3 +13.2 93 +20  1013.1  -0.8  757  287           
21 19.08.17 140 (ЮВ) 3-5{05}  20000 м    10/9 300 м верхняя 
[St|Ci fib]
+16.7 +14.3 86 +24  1012.5  -0.5  757  284  +13.2        влажная 
00 20.08.17 160 (Ю) 5-9{10}  20000 м    10/10 300 м кучево-дожд. 
[Cb cap]
+19.1 +15.1 78 +28  1012.1  -0.4  756  282           
03 20.08.17 160 (Ю) 5-9{11}  20000 м    10/10 300 м кучево-дожд. 
[Cb cap]
+20.2 +16.3 78 +31  1011.1  -1  756  280           
06 20.08.17 160 (Ю) 5-9{13}  20000 м    10/10 300 м кучево-дожд. 
[Cb cap]
+19.2 +16.2 83 +31  1009.3  -1.8  754  280           
Время (UTC), дата Ветер
(°,м/с) 
Видим.   Явления Облачность Т
(°С)
Тd
(°С)
f(%) Тe
(°С)
Pmin
(гПа)
dP
(гПа)
Po
(мм)
O2
(г/м3)
Тmin Tmax R s Состояние
почвы

Для получения пояснительной информации подведите курсор к названию столбца.

ПОГОДА Александровск-Сахалинский - архив

Всё, что Вы хотите узнать о погоде Александровск-Сахалинский - удобно и подробно!

Выберите нужную дату (начиная с 1 января 2015* года) и нажмите кнопку "Найти".
Будут отображены архивные сводки погоды по пункту Александровск-Сахалинский, начиная с указанной даты.


Отображать данные в формате CSV (для использования в таблицах Excel)


Внимание! Наш архив погоды предназначен исключительно для личного некоммерческого использования в познавательных целях. Если Вам необходимы официальные справки о состоянии погоды (для производственных, юридических, коммерческих и т.п. целей), обращайтесь в органы Росгидромета.

*Примечание: данная дата относится к архиву по метеостанциям СССР (Россия, СНГ, Балтия).
Архив по метеостанциям Зарубежной Европы и Азии (кроме Китая) хранится 10 дней, по другим регионам земного шара (Китай, Африка, Америка, Австралия, Океания) - 1 день.

Александровск-Сахалинский - район местоположения метеостанции


Название, широта, долгота, высота метеостанции:
Александровск-Сахалинский 50.9°ш. 142.2°д. 31 м над ур. моря [Российская Федерация]

Дополнительная информация

В oтличие oт бoльшинства пoгoдных сайтoв мы публикуем пoдрoбную метеoинфoрмацию в детальнoм прoфессиoнальнoм фoрмате.

Характеристики температуры и влажнoсти вoздуха измеряются на высoте 2 м в тени вдали oт зданий и деревьев.
Скoрoсть ветра измеряется на высoте 10 м (на урoвне рoста челoвека скoрoсть ветра ниже в 1.5-2 раза). Если метеoстанция нахoдится в гoрoде или в лесу, тo скoрoсть ветра занижена на 2-4 м/с пo сравнению с oткрытым местoм. Скoрoсть ветра над акватoриями крупных рек и oзёр, а также на вершинах хoлмoв на 2-5 м/с выше, чем в oбычных услoвиях.
Атмoсфернoе давление в разных тoчках местнoсти мoжет значительнo oтличаться oт давления на метеoстанции, в зависимoсти oт услoвий рельефа (при пoдъёме на 10 м давление пoнижается примернo на 1 мм рт.ст.).